Starlink 33707

operational
NORAD ID: 63401 Int'l Des: 2025-065 Owner: SPXS Country: US Constellation: starlink
LEOCIRCULAR

Über Starlink 33707

Beschreibung wird geladen...

Live-Position

3D-Globus wird geladen...

Nächste Überflüge

Höhenverlauf

Altitude vs Time

uPlot chart will show altitude changes over time

Zweizeiliger Elementsatz

1 63401U 25065C 25350.33621577 .00014724 00000-0 54407-3 0 9992
2 63401 43.0002 217.6869 0003060 269.7624 90.2877 15.27544350 40091
Epoch: 16. Dez. 2025 • Age: 20 hours

Aktueller Status

Höhe 487.3 km
Geschwindigkeit 7.62 km/s
Subsatellitenpunkt -22.38°S, 84.43°W
Startdatum 31. März 2025
Alter 0.7 years
Typ internet

Technische Details

Klassifizierung Payload
Masse 575.00 kg
Trockenmasse 530.00 kg
Gesamtmasse 575.00 kg
Länge 0.30 m
Durchmesser 4.10 m
Spannweite 29.00 m
Form Box + pan
Hersteller SPXS
Bus-Typ Starlink V2MO
Phasenstatus In Orbit
Besitzer/Staat SPXS/US

Große Konstellationen

Loading constellations...